Weather History for KART - September, 2013

Change the Weather History Date:

Friday, September 27, 2013

  Actual Average Record
Temperature  
Mean Temperature 55 °F 55 °F  
Max Temperature 71 °F 66 °F 82 °F (2011)
Min Temperature 39 °F 45 °F 26 °F (1989)
Degree Days  
Heating Degree Days 10 10  
Month to date heating degree days 216 168  
Since 1 July heating degree days 259 240  
Cooling Degree Days 0 0  
Month to date cooling degree days 48 36  
Year to date cooling degree days 481 360  
Growing Degree Days 4 (Base 50)    
Moisture  
Dew Point 46 °F    
Average Humidity 77    
Maximum Humidity 100    
Minimum Humidity 53    
Precipitation  
Precipitation 0.00 in 0.13 in 2.13 in (2002)
Month to date precipitation 2.82 3.31  
Year to date precipitation 24.62 25.11  
Sea Level Pressure  
Sea Level Pressure 30.24 in    
Wind  
Wind Speed 5 mph (ENE)    
Max Wind Speed 16 mph    
Max Gust Speed 20 mph    
Visibility 8 miles    
Events      
T = Trace of Precipitation, MM = Missing Value Source: NWS Daily Summary

Daily Weather History Graph

Daily Weather History Graph

Search for Another Location

Airport or City:

Trip Planner

Search our weather history database for the weather conditions in past years. The results will help you decide how hot, cold, wet, or windy it might be!

Date:

Astronomy

Sep. 27, 2013 Rise Set
Actual Time 6:57 AM EDT 6:51 PM EDT
Civil Twilight 6:28 AM EDT 7:20 PM EDT
Nautical Twilight 5:54 AM EDT 7:54 PM EDT
Astronomical Twilight 5:20 AM EDT 8:28 PM EDT
Moon No Moon Rise 2:39 PM EDT (9/27)
Length of Visible Light 12h 52m
Length of Day
11h 54m
Last Quarter, 45% of the Moon is Illuminated
Sep 27
Last Quarter
Oct 4
New
Oct 11
First Quarter
Oct 18
Full
Oct 26
Last Quarter

Hourly Weather History & Observations

Time (EDT) Temp. Windchill Dew Point Humidity Pressure Visibility Wind Dir Wind Speed Gust Speed Precip Events Conditions
12:56 AM 48.0 °F - 45.0 °F 89% 30.15 in 10.0 mi NNE 5.8 mph - N/A   Clear
1:56 AM 46.9 °F - 44.1 °F 90% 30.17 in 10.0 mi NE 3.5 mph - N/A   Clear
2:56 AM 45.0 °F 43.5 °F 43.0 °F 93% 30.17 in 8.0 mi East 3.5 mph - N/A   Clear
3:56 AM 43.0 °F - 42.1 °F 97% 30.19 in 9.0 mi Calm Calm - N/A   Clear
4:19 AM 41.0 °F - 39.2 °F 93% 30.20 in 2.0 mi Calm Calm - N/A   Clear
4:28 AM 42.8 °F 41.1 °F 41.0 °F 93% 30.20 in 8.0 mi NE 3.5 mph - N/A   Clear
4:56 AM 42.1 °F - 41.0 °F 96% 30.22 in 6.0 mi Calm Calm - N/A   Clear
5:56 AM 41.0 °F 39.0 °F 39.0 °F 93% 30.23 in 5.0 mi East 3.5 mph - N/A   Clear
6:56 AM 41.0 °F 39.0 °F 39.0 °F 93% 30.24 in 4.0 mi East 3.5 mph - N/A   Clear
7:15 AM 39.2 °F - 39.2 °F 100% 30.24 in 1.8 mi Calm Calm - N/A   Clear
7:25 AM 42.8 °F 41.1 °F 41.0 °F 93% 30.25 in 4.0 mi NE 3.5 mph - N/A   Clear
7:56 AM 45.0 °F 43.5 °F 43.0 °F 93% 30.26 in 10.0 mi East 3.5 mph - N/A   Clear
8:56 AM 52.0 °F - 46.9 °F 83% 30.27 in 10.0 mi NE 4.6 mph - N/A   Clear
9:56 AM 57.9 °F - 50.0 °F 75% 30.27 in 10.0 mi Variable 5.8 mph - N/A   Clear
10:56 AM 62.1 °F - 48.9 °F 62% 30.27 in 10.0 mi ENE 11.5 mph - N/A   Clear
11:56 AM 64.0 °F - 50.0 °F 60% 30.27 in 10.0 mi ENE 11.5 mph - N/A   Clear
12:56 PM 68.0 °F - 51.1 °F 55% 30.26 in 10.0 mi NE 10.4 mph - N/A   Mostly Cloudy
1:56 PM 68.0 °F - 50.0 °F 52% 30.25 in 10.0 mi NE 13.8 mph - N/A   Scattered Clouds
2:56 PM 69.1 °F - 51.1 °F 53% 30.23 in 10.0 mi NE 9.2 mph - N/A   Clear
3:56 PM 70.0 °F - 51.1 °F 51% 30.23 in 10.0 mi ENE 10.4 mph - N/A   Partly Cloudy
4:56 PM 69.1 °F - 51.1 °F 53% 30.23 in 10.0 mi NE 12.7 mph - N/A   Partly Cloudy
5:56 PM 66.0 °F - 51.1 °F 59% 30.24 in 10.0 mi NNE 9.2 mph - N/A   Clear
6:56 PM 57.9 °F - 50.0 °F 75% 30.25 in 10.0 mi ENE 6.9 mph - N/A   Clear
7:56 PM 55.0 °F - 50.0 °F 83% 30.25 in 10.0 mi Calm Calm - N/A   Clear
8:56 PM 51.1 °F - 48.0 °F 89% 30.27 in 10.0 mi ENE 3.5 mph - N/A   Clear
9:56 PM 50.0 °F - 46.9 °F 89% 30.27 in 10.0 mi Calm Calm - N/A   Clear
10:56 PM 48.0 °F - 46.0 °F 93% 30.28 in 9.0 mi Calm Calm - N/A   Clear
11:36 PM 46.4 °F - 44.6 °F 93% 30.28 in 1.2 mi Calm Calm - N/A   Clear
11:48 PM 44.6 °F - 44.6 °F 100% 30.28 in 0.8 mi Calm Calm - N/A   Clear
11:54 PM 44.6 °F 43.1 °F 42.8 °F 93% 30.28 in 2.0 mi East 3.5 mph - N/A   Clear
11:56 PM 45.0 °F 43.5 °F 43.0 °F 93% 30.28 in 5.0 mi East 3.5 mph - N/A   Clear